FW6882 Weather Reports


time (UTC)temp
C
wind
direction
speed
KPH
gust
KPH
rain 1hr
cm
rain 24hr
cm
rain mn
cm
humidity
%
barometer
mb
20260507104522 6 170 1.6 4.8 0.00 0.00 0.00 72 1016.2
20260507103018 6 171 1.6 6.4 0.00 0.00 0.00 71 1016.2
20260507101517 6 172 0.0 6.4 0.00 0.00 0.00 70 1016.0
20260507100013 6 169 1.6 6.4 0.00 0.00 0.00 70 1015.9
20260507094512 6 170 0.0 6.4 0.00 0.00 0.00 70 1016.0
20260507093010 6 178 3.2 6.4 0.00 0.00 0.00 71 1016.1
20260507091544 6 167 1.6 6.4 0.00 0.00 0.00 71 1016.1
20260507090040 6 164 1.6 8.0 0.00 0.00 0.00 70 1016.3
20260507084535 6 169 1.6 8.0 0.00 0.00 0.00 71 1016.5
20260507083033 6 174 1.6 6.4 0.00 0.00 0.00 73 1016.7
20260507081531 7 176 0.0 4.8 0.00 0.00 0.00 71 1016.8
20260507080130 7 167 0.0 9.7 0.00 0.00 0.00 68 1016.8
20260507074526 8 174 1.6 8.0 0.00 0.00 0.00 67 1016.9
20260507073023 7 167 0.0 11.3 0.00 0.00 0.00 69 1016.9
20260507071521 6 181 1.6 6.4 0.00 0.00 0.00 70 1017.0
20260507070027 6 165 0.0 11.3 0.00 0.00 0.00 72 1017.0
20260507064515 5 155 0.0 4.8 0.00 0.00 0.00 76 1016.9
20260507063012 5 163 0.0 4.8 0.00 0.00 0.00 80 1017.0
20260507061511 5 167 0.0 6.4 0.00 0.00 0.00 81 1017.1
20260507060007 5 176 3.2 4.8 0.00 0.00 0.00 82 1017.2
20260507054537 6 185 0.0 4.8 0.00 0.00 0.00 83 1017.2
20260507053135 6 171 0.0 4.8 0.00 0.00 0.00 83 1017.1
20260507051531 6 169 1.6 6.4 0.00 0.00 0.00 84 1017.1
20260507050028 6 178 4.8 6.4 0.00 0.00 0.00 83 1017.0
20260507044523 6 173 3.2 4.8 0.00 0.00 0.00 83 1017.0
20260507043024 6 173 0.0 3.2 0.00 0.00 0.00 86 1017.0
20260507041552 6 172 0.0 3.2 0.00 0.00 0.00 86 1016.9
20260507040051 6 171 0.0 3.2 0.00 0.00 0.00 84 1017.0
20260507034539 6 171 0.0 3.2 0.00 0.00 0.00 85 1016.6
20260507033035 7 171 0.0 1.6 0.00 0.00 0.00 83 1016.4
20260507031529 7 171 0.0 6.4 0.00 0.00 0.00 83 1016.3
20260507030025 8 174 0.0 4.8 0.00 0.00 0.00 81 1016.1
20260507024517 9 171 0.0 3.2 0.00 0.00 0.00 78 1016.2
20260507023013 10 169 0.0 1.6 0.00 0.00 0.00 77 1016.2
20260507021510 10 169 0.0 3.2 0.00 0.00 0.00 74 1016.2
20260507020008 11 169 0.0 6.4 0.00 0.00 0.00 70 1016.3
20260507014503 11 193 0.0 3.2 0.00 0.00 0.00 65 1016.2
20260507013006 12 92 0.0 1.6 0.00 0.00 0.00 65 1016.2
20260507011601 12 296 0.0 4.8 0.00 0.00 0.00 65 1016.2
20260507004604 13 140 0.0 6.4 0.00 0.00 0.00 60 1016.0
20260507003054 15 120 0.0 6.4 0.00 0.00 0.00 57 1016.1
20260507001552 15 118 0.0 4.8 0.00 0.00 0.00 56 1015.7
20260507000051 16 305 1.6 6.4 0.00 0.00 0.00 55 1015.8
20260506234517 16 155 0.0 8.0 0.00 0.00 0.00 57 1015.8
20260506233015 15 194 0.0 8.0 0.00 0.00 0.00 55 1015.9
20260506231510 16 102 0.0 4.8 0.00 0.00 0.00 53 1016.0
20260506230009 16 100 0.0 4.8 0.00 0.00 0.00 53 1016.0
20260506224503 16 302 3.2 11.3 0.00 0.00 0.00 53 1016.2
20260506223103 16 98 0.0 8.0 0.00 0.00 0.00 53 1016.3
20260506221529 17 48 0.0 4.8 0.00 0.00 0.00 55 1016.4
20260506220027 16 80 1.6 9.7 0.00 0.00 0.00 54 1016.8
20260506214534 16 2 0.0 6.4 0.00 0.00 0.00 56 1017.0
20260506213020 16 72 0.0 8.0 0.00 0.00 0.00 55 1017.2
20260506211515 16 5 0.0 4.8 0.00 0.00 0.00 57 1017.3
20260506210019 16 286 1.6 11.3 0.00 0.00 0.00 57 1017.2
20260506204508 16 321 1.6 6.4 0.00 0.00 0.00 60 1017.4
20260506203003 15 8 0.0 3.2 0.00 0.00 0.00 60 1017.6
20260506201600 15 342 0.0 8.0 0.00 0.00 0.00 61 1017.6
20260506200058 15 65 0.0 1.6 0.00 0.00 0.00 60 1017.7
20260506194557 15 349 0.0 6.4 0.00 0.00 0.00 61 1017.9
20260506193022 15 135 0.0 9.7 0.00 0.00 0.00 60 1017.9
20260506191520 15 15 1.6 8.0 0.00 0.00 0.00 57 1018.0
20260506190014 15 72 0.0 6.4 0.00 0.00 0.00 54 1018.1
20260506184510 14 307 0.0 1.6 0.00 0.00 0.00 58 1018.3
20260506183013 14 336 3.2 11.3 0.00 0.00 0.00 53 1018.3
20260506181508 15 338 1.6 6.4 0.00 0.00 0.00 55 1018.4
20260506180100 14 46 1.6 9.7 0.00 0.00 0.00 57 1018.3
20260506174554 14 80 1.6 9.7 0.00 0.08 0.00 53 1018.3
20260506173058 14 92 0.0 6.4 0.00 0.08 0.00 52 1018.5
20260506171543 14 86 0.0 1.6 0.00 0.08 0.00 50 1018.4
20260506170039 14 349 3.2 9.7 0.00 0.08 0.00 49 1018.2
20260506164536 13 347 0.0 4.8 0.00 0.28 0.00 53 1018.1
20260506163025 13 304 0.0 3.2 0.00 0.28 0.00 53 1018.4
20260506161521 12 324 0.0 3.2 0.00 0.28 0.00 58 1018.3
20260506160012 10 347 0.0 3.2 0.00 0.28 0.00 71 1018.4
20260506154506 9 226 0.0 3.2 0.00 0.33 0.28 70 1018.2
20260506153114 7 167 0.0 0.0 0.00 0.33 0.28 93 1018.2
20260506151556 5 167 0.0 0.0 0.00 0.33 0.28 96 1018.1
20260506150058 3 167 0.0 0.0 0.00 0.33 0.28 96 1018.1
20260506144556 3 167 0.0 1.6 0.00 0.51 0.28 96 1018.1
20260506143049 2 167 0.0 3.2 0.00 0.51 0.28 96 1018.1
20260506141547 1 167 0.0 3.2 0.00 0.51 0.28 96 1018.1
20260506140017 1 167 1.6 3.2 0.00 0.51 0.28 96 1018.0
20260506134511 0 167 1.6 3.2 0.00 0.69 0.28 96 1017.7
20260506133007 0 168 0.0 3.2 0.00 0.69 0.28 95 1017.6
20260506131504 0 160 0.0 6.4 0.00 0.69 0.28 95 1017.4
20260506130002 0 174 3.2 4.8 0.00 0.69 0.28 96 1017.2
20260506124605 0 187 1.6 4.8 0.00 0.76 0.28 96 1017.0
20260506123053 0 162 0.0 4.8 0.00 0.76 0.28 96 1016.8
20260506121551 0 172 3.2 4.8 0.00 0.76 0.28 95 1016.7
20260506120049 0 176 1.6 4.8 0.00 0.76 0.28 95 1016.6
20260506114547 0 169 1.6 6.4 0.00 0.76 0.28 95 1016.6
20260506113027 0 171 1.6 3.2 0.00 0.76 0.28 95 1016.5
20260506111513 0 172 1.6 3.2 0.00 0.76 0.28 95 1016.4
20260506110011 0 171 1.6 3.2 0.00 0.76 0.28 95 1016.3